[[{"header":{"parameterUnit":"m.s-1","parameterCategory":1,"la1":30.2991,"la2":30.254,"lo1":-89.0895,"lo2":-89.0444,"dy":0.0017,"dx":0.0017,"nx":28,"ny":28,"refTime":"2023-11-20T03:00:00:Z","depth":0,"parameterNumber":2,"parameterNumberName":"U-component_of_WINDS"},"data":[0,0,0,0,0,0,0,0,0,0,0,0,0,0,0,0,0,0,0,0,0,0,0,0,0,0,0,0,0,0,0,0,0,0,0,0,0,0,0,0,0,0,0,0,0,0,0,0,0,0,0,0,0,0,0,0,0,0,1.938,1.9379,0,1.9326,1.9325,1.9324,1.9277,1.9277,1.9276,1.9276,1.922,1.9219,1.9218,0,0,0,0,0,0,0,0,0,0,0,0,0,1.9442,1.9441,1.938,1.9379,1.9378,1.9326,1.9325,1.9324,1.9277,1.9277,1.9276,1.9276,1.922,1.9219,1.9217,0,0,0,0,0,0,0,0,0,0,0,0,0,1.9404,1.9441,1.938,1.9349,1.9345,1.9326,1.9325,1.9324,1.9278,1.9277,1.9276,1.9275,1.922,1.9219,1.9217,1.9224,0,0,1.9213,1.9212,0,0,0,0,0,0,0,0,1.9407,1.9402,1.9354,1.9351,1.9347,1.9307,1.9326,1.929,1.9278,1.9303,1.9276,1.9275,1.9249,1.9245,1.9237,1.9221,1.9219,1.9213,1.9212,1.9211,1.9211,0,0,0,0,0,0,0,1.9409,1.9404,1.9358,1.9353,1.9349,1.9337,1.9331,1.9319,1.9281,1.9301,1.9297,1.9292,1.9247,1.9239,1.9235,1.9218,1.9213,1.9211,1.921,1.921,1.9206,1.9207,0,0,0,0,0,0,1.9417,1.9407,1.936,1.9357,1.9375,1.9337,1.933,1.9321,1.9281,1.9275,1.9293,1.929,1.9242,1.9237,1.9233,1.9239,1.9211,1.921,1.9209,1.9206,1.9207,1.9207,0,0,0,0,0,0,1.9418,1.9413,1.9362,1.9381,1.9373,1.9337,1.9327,1.932,1.9311,1.9275,1.9268,1.929,1.9241,1.9235,1.9227,1.9236,1.9209,1.9208,1.9205,1.9206,1.9207,1.9249,0,0,0,0,0,0,1.942,1.9414,1.9416,1.9381,1.9373,1.9357,1.9328,1.932,1.9309,1.9305,1.9271,1.9265,1.924,1.9229,1.9225,1.9233,1.9206,1.9204,1.9205,1.9207,1.9247,1.9252,1.9256,0,0,0,0,0,1.9423,1.9429,1.9416,1.9411,1.9374,1.9357,1.9352,1.9323,1.931,1.9312,1.9289,1.9266,1.9236,1.9229,1.9224,1.9232,1.9203,1.9205,1.9207,1.9245,1.9251,1.9256,0,0,0,0,0,0,1.9465,1.9424,1.9409,1.9405,1.9385,1.9349,1.935,1.9331,1.9314,1.9311,1.9275,1.9268,1.9264,1.9247,1.924,1.9237,1.9217,1.9217,1.9247,1.9253,1.9257,1.9261,1.9205,0,0,0,0,0,1.9474,1.9464,1.9429,1.9429,1.942,1.9387,1.9379,1.9358,1.9336,1.9327,1.9303,1.9283,1.9269,1.926,1.9245,1.9245,1.9237,1.9248,1.9253,1.9257,1.9257,1.9257,1.9261,1.9213,1.9213,1.9213,0,0,1.9492,1.9469,1.9464,1.9437,1.9419,1.9409,1.938,1.9371,1.9363,1.9326,1.9316,1.9299,1.9273,1.9269,1.9266,1.9255,1.9269,1.9259,1.9263,1.9261,1.9259,1.9264,1.9268,1.9215,1.9214,1.9214,0,0,1.952,1.9502,1.9499,1.9483,1.9457,1.9435,1.9435,1.9403,1.939,1.938,1.9352,1.9343,1.932,1.9303,1.9292,1.9316,1.9294,1.9312,1.9335,1.9335,1.9339,1.9342,1.9351,1.9354,1.9313,1.9314,1.9314,0,1.9546,1.953,1.9501,1.9493,1.9482,1.9449,1.9447,1.9432,1.9403,1.9396,1.9384,1.9355,1.9335,1.9327,1.9334,1.9326,1.9324,1.9315,1.9341,1.9344,1.9346,1.9354,1.9357,1.9316,1.9316,1.9315,1.9315,0,1.9563,1.9553,1.9554,1.9527,1.9516,1.9512,1.9482,1.9475,1.9456,1.9436,1.9428,1.9404,1.9384,1.9381,1.9362,1.937,1.9364,1.9348,1.9326,1.9354,1.936,1.9363,1.9319,1.9318,1.9318,1.9317,0,0,1.9613,1.9572,1.9573,1.9561,1.9531,1.9522,1.9517,1.9498,1.9492,1.9474,1.9468,1.9451,1.9435,1.9422,1.9402,1.9402,1.9423,1.9385,1.9384,1.9392,1.9431,1.9443,1.9447,1.941,1.941,1.941,1.9433,0,1.9636,1.9624,1.9598,1.9594,1.9585,1.9555,1.955,1.9531,1.9513,1.9503,1.9483,1.947,1.9451,1.9443,1.9442,1.9421,1.943,1.9419,1.9403,1.9403,1.9409,1.945,1.9462,1.9485,1.9435,1.9436,1.9436,0,1.9659,1.9644,1.9639,1.9611,1.9606,1.9602,1.9583,1.9574,1.9552,1.9539,1.9526,1.9504,1.9497,1.9479,1.9469,1.9462,1.9455,1.9444,1.9444,1.944,1.942,1.9447,1.9491,1.9494,1.944,1.944,1.9439,0,1.9696,1.9674,1.9668,1.9659,1.9626,1.9624,1.961,1.9588,1.9579,1.9563,1.9557,1.9541,1.9531,1.9519,1.9494,1.9483,1.9487,1.9466,1.9475,1.9476,1.9476,1.9476,1.9519,1.9474,1.9474,1.9474,1.9473,0,1.9723,1.9721,1.9685,1.9681,1.9678,1.965,1.9648,1.9632,1.9613,1.9606,1.9579,1.9573,1.9541,1.9531,1.9511,1.9506,1.9502,1.9492,1.9486,1.9493,1.9494,1.9487,1.9484,1.9474,1.9474,1.9474,1.9474,0,1.9763,1.9738,1.973,1.9701,1.9693,1.9692,1.9667,1.9663,1.9644,1.9636,1.9632,1.9603,1.959,1.9565,1.9545,1.9532,1.9531,1.9522,1.9538,1.9534,1.9545,1.9544,1.9583,1.9587,1.954,1.9541,1.9541,0,1.9781,1.9779,1.9749,1.9743,1.9731,1.9721,1.9711,1.9684,1.9676,1.9653,1.9651,1.9637,1.9624,1.9605,1.9582,1.9568,1.9557,1.9572,1.9555,1.9562,1.9557,1.9557,1.9556,1.9575,1.9576,1.9577,1.9577,0,1.9815,1.9803,1.9791,1.9776,1.9766,1.9752,1.9737,1.9733,1.9702,1.9694,1.9682,1.9672,1.9652,1.9638,1.9621,1.9607,1.9587,1.9583,1.9584,1.9591,1.96,1.9595,1.9547,1.9582,1.9581,1.9581,1.9581,1.9581,1.9844,1.9841,1.982,1.9808,1.9794,1.9781,1.9775,1.9757,1.9746,1.9728,1.9713,1.9702,1.9682,1.9656,1.9644,1.9635,1.9625,1.9627,1.9627,1.9628,1.9631,1.9603,1.9632,1.9632,1.9632,1.9631,1.9631,0,1.9876,1.9862,1.9851,1.9831,1.9822,1.9805,1.9788,1.9781,1.9772,1.9756,1.9744,1.973,1.9717,1.9694,1.9679,1.9676,1.9667,1.9673,1.9672,1.967,1.9641,1.9641,1.9681,1.9681,1.9681,1.9681,1.9681,1.9681,1.9891,1.9886,1.9872,1.986,1.9846,1.9835,1.9826,1.9814,1.9801,1.9787,1.9776,1.9762,1.9743,1.9727,1.9715,1.9708,1.9704,1.9713,1.9703,1.9676,1.9672,1.9667,1.9667,1.9712,1.9712,1.9733,1.9733,1.9733]},{"header":{"parameterUnit":"m.s-1","parameterCategory":1,"la1":30.2991,"la2":30.254,"lo1":-89.0895,"lo2":-89.0444,"dy":0.0017,"dx":0.0017,"nx":28,"ny":28,"refTime":"2023-11-20T03:00:00:Z","depth":0,"parameterNumber":3,"parameterNumberName":"V-component_of_WINDS"},"data":[0,0,0,0,0,0,0,0,0,0,0,0,0,0,0,0,0,0,0,0,0,0,0,0,0,0,0,0,0,0,0,0,0,0,0,0,0,0,0,0,0,0,0,0,0,0,0,0,0,0,0,0,0,0,0,0,0,0,-6.7694,-6.7696,0,-6.7835,-6.7836,-6.7838,-6.7786,-6.7783,-6.778,-6.7777,-6.7916,-6.7923,-6.7929,0,0,0,0,0,0,0,0,0,0,0,0,0,-6.7379,-6.7385,-6.7694,-6.7696,-6.7698,-6.7835,-6.7837,-6.7838,-6.7787,-6.7783,-6.7779,-6.7775,-6.7914,-6.7922,-6.793,0,0,0,0,0,0,0,0,0,0,0,0,0,-6.7517,-6.7387,-6.7694,-6.7689,-6.769,-6.7834,-6.7837,-6.7839,-6.7788,-6.7783,-6.7778,-6.7774,-6.7912,-6.7921,-6.7931,-6.8088,0,0,-6.7962,-6.7966,0,0,0,0,0,0,0,0,-6.7509,-6.7529,-6.7688,-6.7689,-6.7691,-6.7788,-6.7776,-6.7922,-6.7789,-6.775,-6.7777,-6.7771,-6.7877,-6.789,-6.7926,-6.8095,-6.8101,-6.7963,-6.7969,-6.7973,-6.7976,0,0,0,0,0,0,0,-6.75,-6.7522,-6.775,-6.769,-6.7692,-6.7678,-6.7693,-6.7804,-6.7839,-6.7753,-6.775,-6.7767,-6.7877,-6.7917,-6.7929,-6.8103,-6.7962,-6.7971,-6.7977,-6.7981,-6.8409,-6.8414,0,0,0,0,0,0,-6.749,-6.7515,-6.7745,-6.7754,-6.7587,-6.7688,-6.7704,-6.7762,-6.7837,-6.7844,-6.7771,-6.7764,-6.7902,-6.7918,-6.7934,-6.8124,-6.7973,-6.7982,-6.7988,-6.8404,-6.841,-6.8416,0,0,0,0,0,0,-6.7484,-6.7511,-6.774,-6.7634,-6.7662,-6.7699,-6.7764,-6.7767,-6.7807,-6.7851,-6.7856,-6.7806,-6.7899,-6.792,-6.8051,-6.8128,-6.7987,-6.7996,-6.8397,-6.8406,-6.8413,-6.8505,0,0,0,0,0,0,-6.7475,-6.7509,-6.757,-6.7635,-6.7668,-6.7855,-6.7768,-6.7773,-6.7825,-6.7817,-6.7885,-6.7891,-6.7897,-6.8036,-6.8061,-6.814,-6.8004,-6.839,-6.8401,-6.841,-6.8496,-6.8516,-6.8533,0,0,0,0,0,-6.7464,-6.7589,-6.7573,-6.7601,-6.7744,-6.786,-6.7878,-6.7883,-6.7831,-6.7892,-6.7921,-6.7889,-6.8116,-6.805,-6.8077,-6.816,-6.8386,-6.8398,-6.841,-6.8487,-6.8512,-6.8532,0,0,0,0,0,0,-6.7529,-6.7597,-6.758,-6.7731,-6.779,-6.7851,-6.7928,-6.7908,-6.7983,-6.7972,-6.7974,-6.799,-6.8125,-6.8156,-6.8081,-6.8317,-6.8243,-6.8261,-6.8293,-6.8316,-6.8334,-6.8324,-6.8012,0,0,0,0,0,-6.7561,-6.765,-6.7705,-6.7832,-6.7863,-6.7891,-6.7941,-6.794,-6.8001,-6.8026,-6.8064,-6.8123,-6.8208,-6.8264,-6.8344,-6.85,-6.8514,-6.857,-6.8589,-6.8604,-6.862,-6.8706,-6.8732,-6.8455,-6.8455,-6.8455,0,0,-6.7627,-6.7676,-6.7732,-6.7846,-6.7892,-6.7984,-6.7912,-6.8012,-6.808,-6.804,-6.8167,-6.8198,-6.8264,-6.8409,-6.8474,-6.8438,-6.8699,-6.8619,-6.8631,-6.8639,-6.8721,-6.8747,-6.877,-6.8464,-6.8462,-6.8461,0,0,-6.7796,-6.7842,-6.7954,-6.8002,-6.8074,-6.8092,-6.8119,-6.8184,-6.8203,-6.8331,-6.8304,-6.8384,-6.853,-6.8579,-6.8623,-6.8814,-6.8788,-6.884,-6.8937,-6.9021,-6.9043,-6.9062,-6.9131,-6.9156,-6.8855,-6.8855,-6.8855,0,-6.787,-6.8009,-6.8013,-6.8117,-6.8168,-6.8139,-6.8253,-6.8299,-6.8392,-6.8428,-6.8387,-6.8571,-6.8613,-6.877,-6.8817,-6.8853,-6.8884,-6.8832,-6.9039,-6.9059,-6.9077,-6.9143,-6.9169,-6.8861,-6.8861,-6.886,-6.8859,0,-6.8096,-6.8193,-6.8275,-6.8368,-6.8429,-6.8537,-6.8558,-6.8618,-6.8613,-6.8635,-6.8766,-6.8817,-6.8908,-6.8945,-6.8939,-6.9102,-6.9078,-6.9038,-6.8963,-6.9109,-6.9171,-6.9196,-6.887,-6.8868,-6.8866,-6.8864,0,0,-6.8308,-6.8406,-6.8435,-6.8479,-6.8557,-6.8631,-6.8738,-6.8829,-6.8882,-6.8947,-6.9037,-6.9163,-6.9127,-6.9178,-6.9177,-6.9251,-6.9401,-6.9203,-6.9204,-6.9239,-6.9585,-6.9615,-6.9644,-6.9385,-6.9389,-6.9393,-6.9579,0,-6.8484,-6.8674,-6.8682,-6.8854,-6.8944,-6.8919,-6.9012,-6.907,-6.9094,-6.9174,-6.9199,-6.9289,-6.9235,-6.9266,-6.9338,-6.9368,-6.9471,-6.9354,-6.9468,-6.9472,-6.9453,-6.9676,-6.9707,-6.9881,-6.9604,-6.9608,-6.9611,0,-6.8714,-6.879,-6.8972,-6.904,-6.9078,-6.9162,-6.9247,-6.9323,-6.9388,-6.9401,-6.9459,-6.9448,-6.9558,-6.948,-6.963,-6.9551,-6.9598,-6.962,-6.9627,-6.9638,-6.955,-6.9694,-6.9936,-6.9962,-6.9649,-6.9646,-6.9643,0,-6.8853,-6.9,-6.9128,-6.9166,-6.9247,-6.9307,-6.9344,-6.9404,-6.9459,-6.9533,-6.9569,-6.9654,-6.9701,-6.9767,-6.978,-6.9722,-6.9932,-6.9854,-6.9945,-6.9945,-6.999,-6.9987,-7.0244,-7.002,-7.002,-7.0019,-7.0019,0,-6.9048,-6.9161,-6.9192,-6.9271,-6.9397,-6.9406,-6.9529,-6.9561,-6.9616,-6.9701,-6.9683,-6.9762,-6.9775,-6.9857,-6.9868,-6.9992,-7.0013,-7.0026,-7.0027,-7.0028,-7.0027,-7.0059,-7.0047,-7.0026,-7.0024,-7.0023,-7.0022,0,-6.9224,-6.9249,-6.9388,-6.9455,-6.9474,-6.9564,-6.9621,-6.9696,-6.9719,-6.9827,-6.9852,-6.9888,-6.9985,-7.0005,-7.0118,-7.0125,-7.0273,-7.0262,-7.0252,-7.0251,-7.0341,-7.0333,-7.0628,-7.0668,-7.0417,-7.0419,-7.0421,0,-6.9347,-6.9434,-6.9511,-6.9567,-6.9608,-6.9698,-6.9755,-6.9767,-6.9827,-6.9909,-6.9975,-7.007,-7.0147,-7.0302,-7.0337,-7.0425,-7.0416,-7.0514,-7.0429,-7.0427,-7.0419,-7.0414,-7.0423,-7.053,-7.0533,-7.0535,-7.0537,0,-6.9564,-6.9573,-6.9657,-6.9746,-6.9815,-6.9885,-6.9951,-6.9998,-7.0019,-7.0087,-7.0187,-7.0247,-7.0364,-7.0459,-7.0547,-7.0583,-7.0564,-7.0563,-7.0589,-7.0591,-7.0582,-7.0589,-7.0297,-7.0556,-7.0554,-7.0553,-7.0552,-7.0551,-6.9718,-6.9795,-6.9862,-6.9956,-7.0008,-7.0071,-7.0147,-7.018,-7.0264,-7.0362,-7.0364,-7.0473,-7.0537,-7.0654,-7.0696,-7.0781,-7.075,-7.0787,-7.0796,-7.0806,-7.0815,-7.0568,-7.0796,-7.0796,-7.0795,-7.0795,-7.0795,0,-6.9936,-6.9978,-7.0065,-7.016,-7.0234,-7.0212,-7.0285,-7.0348,-7.0445,-7.0508,-7.0584,-7.07,-7.0792,-7.0836,-7.0927,-7.0987,-7.0981,-7.101,-7.1006,-7.1015,-7.0836,-7.0805,-7.1014,-7.1014,-7.1014,-7.1014,-7.1014,-7.1014,-7.0057,-7.0186,-7.0204,-7.0359,-7.04,-7.0508,-7.0552,-7.0611,-7.0661,-7.0791,-7.0869,-7.0897,-7.0953,-7.1048,-7.1132,-7.1142,-7.1177,-7.1212,-7.1218,-7.105,-7.1028,-7.1006,-7.0977,-7.1219,-7.1219,-7.139,-7.1391,-7.1393]}]]